[[{"header":{"parameterUnit":"m.s-1","parameterCategory":2,"la1":30.2991,"la2":30.254,"lo1":-89.0895,"lo2":-89.0444,"dy":0.0017,"dx":0.0017,"nx":28,"ny":28,"refTime":"2025-09-05T03:00:00:Z","depth":"0","parameterNumber":2,"parameterNumberName":"U-component_of_CURRENTS"},"data":[0,0,0,0,0,0,0,0,0,0,0,0,0,0,0,0,0,0,0,0,0,0,0,0,0,0,0,0,0,0,0,0,0,0,0,0,0,0,0,0,0,0,0,0,0,0,0,0,0,0,0,0,0,0,0,0,0,0,0.2932,0.2932,0,0.288,0.2879,0.2878,0.2834,0.2834,0.2834,0.2833,0.2812,0.2811,0.2811,0,0,0,0,0,0,0,0,0,0,0,0,0,0.2975,0.2975,0.2932,0.2932,0.2932,0.288,0.2879,0.2878,0.2834,0.2834,0.2834,0.2833,0.2812,0.2811,0.2811,0,0,0,0,0,0,0,0,0,0,0,0,0,0.2939,0.2974,0.2932,0.2907,0.2905,0.288,0.2879,0.2877,0.2834,0.2834,0.2834,0.2833,0.2812,0.2812,0.2811,0.2808,0,0,0.2808,0.2808,0,0,0,0,0,0,0,0,0.2941,0.2937,0.2911,0.2909,0.2906,0.2867,0.2886,0.2857,0.2834,0.2856,0.2833,0.2833,0.2836,0.2834,0.2817,0.2807,0.2806,0.2808,0.2808,0.2807,0.2807,0,0,0,0,0,0,0,0.2944,0.2939,0.2907,0.2911,0.2908,0.2892,0.2887,0.288,0.2844,0.2854,0.2852,0.2853,0.2835,0.2818,0.2816,0.2805,0.2808,0.2808,0.2807,0.2807,0.2874,0.2876,0,0,0,0,0,0,0.296,0.2941,0.2908,0.2906,0.2929,0.2892,0.2885,0.2876,0.2843,0.2839,0.2853,0.2851,0.2819,0.2817,0.2815,0.2886,0.2807,0.2807,0.2806,0.2871,0.2874,0.2877,0,0,0,0,0,0,0.2961,0.2957,0.2911,0.2927,0.292,0.2892,0.2881,0.2875,0.2871,0.2844,0.2839,0.2858,0.2819,0.2817,0.2839,0.2882,0.2806,0.2806,0.2869,0.2872,0.2875,0.2978,0,0,0,0,0,0,0.2962,0.2958,0.2961,0.2927,0.292,0.2919,0.2882,0.2874,0.2874,0.2871,0.2847,0.2843,0.2819,0.2841,0.2839,0.2879,0.2805,0.2866,0.287,0.2874,0.2972,0.2984,0.2995,0,0,0,0,0,0.2964,0.2977,0.2961,0.2958,0.2923,0.2921,0.2916,0.2892,0.2875,0.2885,0.2875,0.2845,0.2866,0.2842,0.2839,0.288,0.2864,0.2869,0.2874,0.2966,0.2982,0.2995,0,0,0,0,0,0,0.3006,0.2973,0.2955,0.2958,0.295,0.2916,0.2927,0.2904,0.29,0.2903,0.2868,0.2865,0.2912,0.288,0.2854,0.2914,0.2862,0.2867,0.2934,0.2948,0.2959,0.3003,0.2804,0,0,0,0,0,0.3015,0.3011,0.2984,0.2991,0.299,0.2959,0.2956,0.294,0.293,0.2926,0.291,0.2905,0.2926,0.2924,0.2934,0.2953,0.2986,0.298,0.2992,0.3002,0.3038,0.3138,0.3164,0.2893,0.2893,0.2893,0,0,0.3032,0.3018,0.3014,0.3,0.2989,0.3006,0.2956,0.2965,0.2991,0.2928,0.2963,0.2955,0.2947,0.2984,0.2999,0.296,0.3095,0.3008,0.3017,0.3048,0.3147,0.3173,0.3197,0.2897,0.2896,0.2895,0,0,0.307,0.3056,0.3062,0.3063,0.3059,0.3052,0.3062,0.3039,0.3043,0.3058,0.3048,0.3073,0.3057,0.3083,0.3089,0.3171,0.3169,0.3161,0.3238,0.3336,0.3359,0.3381,0.3454,0.3481,0.3149,0.3149,0.3149,0,0.3092,0.3091,0.307,0.3087,0.3097,0.3081,0.3104,0.312,0.311,0.3125,0.3085,0.3126,0.3115,0.3197,0.3226,0.3202,0.3248,0.3181,0.3354,0.3376,0.3396,0.3465,0.3494,0.3155,0.3154,0.3153,0.3153,0,0.3126,0.3136,0.3151,0.3164,0.3182,0.3202,0.322,0.3248,0.3238,0.3234,0.3296,0.3287,0.3308,0.331,0.3289,0.3427,0.3411,0.3372,0.3321,0.343,0.3495,0.3523,0.3163,0.3161,0.3159,0.3158,0,0,0.3135,0.3163,0.3166,0.3185,0.3219,0.3236,0.3311,0.3354,0.3407,0.3401,0.3466,0.3499,0.3485,0.3496,0.3486,0.356,0.373,0.3529,0.3531,0.3608,0.3947,0.3832,0.3851,0.3725,0.373,0.3735,0.3933,0,0.3161,0.3198,0.3212,0.3273,0.3297,0.3328,0.3399,0.3447,0.3476,0.3543,0.3562,0.3615,0.3562,0.3578,0.3655,0.3721,0.381,0.368,0.3825,0.383,0.3721,0.3882,0.3598,0.3743,0.3961,0.3965,0.3969,0,0.3175,0.3202,0.3249,0.332,0.3335,0.3381,0.3485,0.3544,0.3649,0.367,0.3731,0.3745,0.3866,0.3795,0.3984,0.3904,0.3953,0.3989,0.3996,0.388,0.3769,0.367,0.3785,0.3635,0.4011,0.4008,0.4005,0,0.3173,0.3228,0.3265,0.3286,0.337,0.3413,0.3468,0.357,0.3637,0.3765,0.3815,0.3933,0.3996,0.41,0.415,0.4094,0.4352,0.4271,0.4222,0.4212,0.3996,0.3958,0.3988,0.444,0.444,0.4439,0.4439,0,0.3187,0.3219,0.3265,0.3291,0.3366,0.3416,0.3515,0.3594,0.3713,0.3807,0.3879,0.3978,0.4081,0.4204,0.4247,0.4328,0.4432,0.4296,0.4282,0.4019,0.3983,0.3858,0.3805,0.4447,0.4445,0.4444,0.4442,0,0.3179,0.3205,0.3259,0.3337,0.3367,0.342,0.3535,0.3611,0.372,0.3859,0.3905,0.4062,0.4215,0.4302,0.4477,0.4434,0.4379,0.4525,0.4196,0.4139,0.3897,0.386,0.3829,0.3729,0.4513,0.4512,0.4511,0,0.3165,0.3191,0.3282,0.3321,0.3357,0.3434,0.3499,0.3611,0.369,0.3899,0.397,0.4151,0.4247,0.4444,0.4413,0.4481,0.4363,0.4256,0.4094,0.3901,0.3852,0.3727,0.3636,0.3853,0.3847,0.3841,0.3837,0,0.315,0.3188,0.3242,0.3325,0.3389,0.3458,0.3549,0.3606,0.3747,0.3845,0.4,0.4094,0.4236,0.4159,0.4214,0.421,0.3986,0.4149,0.4045,0.3443,0.3217,0.3103,0.3702,0.3791,0.3795,0.3799,0.3801,0.3803,0.3132,0.3164,0.3238,0.3312,0.3394,0.3454,0.3447,0.354,0.3623,0.368,0.3884,0.3893,0.3878,0.3889,0.3893,0.3612,0.3699,0.3427,0.3436,0.3359,0.3137,0.3634,0.3635,0.3638,0.3641,0.3644,0.3646,0,0.3073,0.3129,0.3213,0.3281,0.3323,0.3388,0.3452,0.3385,0.3388,0.3483,0.3531,0.3431,0.3302,0.3278,0.3039,0.2892,0.2772,0.2799,0.2545,0.2525,0.3037,0.2876,0.2591,0.2592,0.2592,0.2592,0.2592,0.2592,0.305,0.3088,0.3134,0.3172,0.3211,0.3157,0.3141,0.3072,0.3072,0.2942,0.2839,0.2854,0.2831,0.2625,0.2383,0.2326,0.2177,0.2021,0.215,0.2457,0.2514,0.2569,0.2404,0.2025,0.2025,0.1443,0.1438,0.1435]},{"header":{"parameterUnit":"m.s-1","parameterCategory":2,"la1":30.2991,"la2":30.254,"lo1":-89.0895,"lo2":-89.0444,"dy":0.0017,"dx":0.0017,"nx":28,"ny":28,"refTime":"2025-09-05T03:00:00:Z","depth":"0","parameterNumber":3,"parameterNumberName":"V-component_of_CURRENTS"},"data":[0,0,0,0,0,0,0,0,0,0,0,0,0,0,0,0,0,0,0,0,0,0,0,0,0,0,0,0,0,0,0,0,0,0,0,0,0,0,0,0,0,0,0,0,0,0,0,0,0,0,0,0,0,0,0,0,0,0,0.0167,0.0167,0,0.0111,0.011,0.011,0.0064,0.0064,0.0063,0.0063,-0.0018,-0.002,-0.0021,0,0,0,0,0,0,0,0,0,0,0,0,0,0.0199,0.0198,0.0167,0.0167,0.0166,0.0111,0.011,0.0109,0.0064,0.0064,0.0063,0.0063,-0.0017,-0.0019,-0.0022,0,0,0,0,0,0,0,0,0,0,0,0,0,0.0167,0.0198,0.0168,0.0137,0.0134,0.0111,0.011,0.0109,0.0064,0.0064,0.0063,0.0063,-0.0017,-0.0019,-0.0022,-0.0027,0,0,-0.003,-0.0031,0,0,0,0,0,0,0,0,0.0169,0.0166,0.0143,0.014,0.0136,0.0095,0.0092,0.0063,0.0064,0.009,0.0063,0.0062,0.0018,0.0013,0.0003,-0.003,-0.0034,-0.003,-0.0032,-0.0033,-0.0034,0,0,0,0,0,0,0,0.0172,0.0168,0.0144,0.0142,0.0138,0.0114,0.0109,0.0086,0.0057,0.0088,0.0085,0.008,0.0016,0.0006,0.0,-0.0035,-0.003,-0.0033,-0.0034,-0.0035,-0.0089,-0.0089,0,0,0,0,0,0,0.0183,0.0171,0.0146,0.0143,0.0152,0.0114,0.0109,0.0108,0.0058,0.005,0.008,0.0078,0.001,0.0004,-0.0003,0.0005,-0.0033,-0.0036,-0.0037,-0.0089,-0.0089,-0.0089,0,0,0,0,0,0,0.0184,0.0181,0.0148,0.0156,0.015,0.0115,0.0114,0.0107,0.0097,0.0053,0.0044,0.0077,0.001,0.0001,-0.0026,0.0001,-0.0037,-0.0039,-0.009,-0.0089,-0.0089,0.0009,0,0,0,0,0,0,0.0185,0.0182,0.0186,0.0157,0.015,0.0143,0.0114,0.0106,0.0095,0.0092,0.0047,0.0039,0.0009,-0.0021,-0.0028,-0.0004,-0.0041,-0.009,-0.009,-0.0089,0.0006,0.0013,0.0019,0,0,0,0,0,0.0186,0.0199,0.0186,0.0183,0.0156,0.0144,0.0139,0.011,0.0096,0.0098,0.0061,0.0041,-0.0024,-0.0024,-0.0032,-0.0007,-0.009,-0.009,-0.0089,0.0003,0.0011,0.0018,0,0,0,0,0,0,0.0212,0.0195,0.018,0.0186,0.0168,0.0137,0.0137,0.0117,0.009,0.0086,0.0041,0.003,0.0016,-0.0015,-0.0013,-0.0025,-0.006,-0.0061,0.0013,0.0021,0.0027,0.0066,-0.0044,0,0,0,0,0,0.022,0.0226,0.0201,0.0205,0.0201,0.0169,0.0161,0.0144,0.0116,0.0104,0.0072,0.0037,0.0012,0.0001,-0.003,-0.0034,-0.0027,-0.0026,-0.0019,-0.0013,0.0011,0.0049,0.0063,-0.0088,-0.0088,-0.0088,0,0,0.023,0.0222,0.0224,0.0211,0.0196,0.02,0.0163,0.0158,0.0163,0.01,0.0094,0.0057,0.0013,0.0006,-0.0002,-0.0015,0.003,-0.0013,-0.0007,0.0014,0.0051,0.0066,0.008,-0.0087,-0.0088,-0.0088,0,0,0.0258,0.0248,0.0263,0.0255,0.0241,0.0226,0.0229,0.0202,0.0191,0.0175,0.0136,0.0122,0.007,0.0062,0.0046,0.0071,0.006,0.0048,0.0122,0.0159,0.0173,0.0185,0.0212,0.0226,0.0057,0.0057,0.0058,0,0.0269,0.0286,0.0264,0.0277,0.0281,0.0244,0.0263,0.0249,0.0216,0.0219,0.0184,0.0144,0.0106,0.0122,0.0126,0.0092,0.0103,0.01,0.0173,0.0185,0.0196,0.022,0.0234,0.0062,0.0062,0.0061,0.0061,0,0.031,0.0321,0.0331,0.0339,0.0339,0.0351,0.0332,0.0331,0.0309,0.0295,0.0295,0.0248,0.0232,0.0214,0.0175,0.0231,0.021,0.0177,0.0165,0.0218,0.0238,0.0252,0.0069,0.0067,0.0066,0.0065,0,0,0.0337,0.0358,0.036,0.0376,0.0376,0.0382,0.04,0.0409,0.0431,0.0398,0.0431,0.039,0.0371,0.0353,0.0313,0.0341,0.0419,0.0298,0.0297,0.0346,0.0501,0.0452,0.0462,0.0402,0.0405,0.0407,0.0484,0,0.0374,0.0418,0.0419,0.046,0.0482,0.0469,0.049,0.0493,0.0486,0.0506,0.0482,0.0486,0.0422,0.0421,0.0443,0.0428,0.0458,0.0401,0.0423,0.0424,0.0393,0.0477,0.0458,0.0523,0.0497,0.0499,0.0501,0,0.0414,0.044,0.0492,0.0529,0.0538,0.0559,0.0598,0.061,0.0629,0.0626,0.0639,0.061,0.0649,0.0577,0.0617,0.0584,0.0557,0.0539,0.0541,0.0476,0.0401,0.0463,0.0548,0.0442,0.0521,0.0519,0.0518,0,0.0448,0.0491,0.0539,0.055,0.0584,0.0611,0.0629,0.0651,0.0679,0.0713,0.0745,0.076,0.0785,0.0772,0.0723,0.0684,0.0762,0.07,0.0633,0.0628,0.0608,0.0597,0.0616,0.0737,0.0736,0.0736,0.0736,0,0.0491,0.0526,0.056,0.0584,0.0645,0.0652,0.0713,0.0731,0.0776,0.0843,0.0815,0.0884,0.0838,0.0858,0.0795,0.0771,0.0824,0.068,0.0661,0.0637,0.0628,0.0528,0.045,0.0739,0.0738,0.0738,0.0737,0,0.0522,0.0542,0.0599,0.0646,0.0663,0.0706,0.0764,0.0808,0.0846,0.0941,0.0964,0.1008,0.1052,0.0985,0.0978,0.0874,0.0781,0.0804,0.0771,0.0746,0.0562,0.049,0.0503,0.0463,0.0764,0.0764,0.0763,0,0.0548,0.058,0.0641,0.0678,0.0704,0.0759,0.0801,0.084,0.0901,0.1032,0.1097,0.116,0.1238,0.1194,0.1037,0.0938,0.0807,0.0796,0.071,0.0584,0.049,0.0448,0.041,0.0724,0.0724,0.0723,0.0723,0,0.0602,0.0621,0.0666,0.0733,0.0785,0.0847,0.0919,0.0981,0.106,0.1171,0.134,0.1424,0.1373,0.1287,0.1091,0.0985,0.0711,0.0778,0.0677,0.0497,0.0429,0.0369,0.0627,0.0717,0.0718,0.0718,0.0719,0.0719,0.0644,0.0683,0.0737,0.0803,0.0864,0.0953,0.1026,0.1128,0.127,0.1459,0.152,0.1679,0.1476,0.1238,0.1057,0.0678,0.0701,0.0554,0.0491,0.0472,0.0392,0.0628,0.0666,0.0666,0.0666,0.0666,0.0666,0,0.0698,0.0738,0.0803,0.0891,0.0969,0.0987,0.1118,0.1215,0.1416,0.1593,0.1756,0.1758,0.1499,0.1181,0.0677,0.0432,0.035,0.0301,0.0245,0.0229,0.0476,0.0429,0.0382,0.0382,0.0382,0.0382,0.0382,0.0383,0.0729,0.0798,0.0828,0.0968,0.1033,0.1154,0.124,0.1403,0.1554,0.1775,0.1878,0.1938,0.1684,0.0846,0.0293,0.0166,0.0015,-0.0017,-0.0072,0.0075,0.0094,0.0112,0.0053,-0.0073,-0.0073,-0.0283,-0.0285,-0.0287]}],[{"header":{"parameterUnit":"m.s-1","parameterCategory":2,"la1":30.2991,"la2":30.254,"lo1":-89.0895,"lo2":-89.0444,"dy":0.0017,"dx":0.0017,"nx":28,"ny":28,"refTime":"2025-09-05T03:00:00:Z","depth":"2","parameterNumber":2,"parameterNumberName":"U-component_of_CURRENTS"},"data":[0,0,0,0,0,0,0,0,0,0,0,0,0,0,0,0,0,0,0,0,0,0,0,0,0,0,0,0,0,0,0,0,0,0,0,0,0,0,0,0,0,0,0,0,0,0,0,0,0,0,0,0,0,0,0,0,0,0,0.2189,0.2189,0,0.2216,0.2216,0.2217,0.2228,0.2228,0.2227,0.2227,0.2219,0.2219,0.2219,0,0,0,0,0,0,0,0,0,0,0,0,0,0.2209,0.2208,0.2189,0.2189,0.2189,0.2216,0.2216,0.2217,0.2228,0.2228,0.2227,0.2227,0.2219,0.2219,0.2219,0,0,0,0,0,0,0,0,0,0,0,0,0,0.2216,0.2208,0.2189,0.2197,0.2197,0.2216,0.2216,0.2217,0.2228,0.2228,0.2227,0.2227,0.2219,0.2219,0.2219,0.2225,0,0,0.2219,0.2219,0,0,0,0,0,0,0,0,0.2215,0.2215,0.2195,0.2196,0.2197,0.2217,0.222,0.2217,0.2228,0.2218,0.2227,0.2227,0.2214,0.2214,0.2223,0.2225,0.2224,0.2219,0.2219,0.2219,0.2219,0,0,0,0,0,0,0,0.2215,0.2214,0.2201,0.2195,0.2197,0.222,0.222,0.222,0.2218,0.2219,0.2219,0.222,0.2214,0.2223,0.2223,0.2224,0.2219,0.2219,0.2219,0.2219,0.2281,0.2283,0,0,0,0,0,0,0.2205,0.2213,0.22,0.2202,0.2204,0.2219,0.222,0.2212,0.2219,0.222,0.222,0.222,0.2223,0.2223,0.2223,0.2276,0.2219,0.2219,0.2219,0.2279,0.2281,0.2283,0,0,0,0,0,0,0.2205,0.2203,0.2199,0.2208,0.2208,0.2219,0.221,0.2213,0.2234,0.222,0.222,0.224,0.2223,0.2223,0.2229,0.2274,0.2219,0.2219,0.2277,0.228,0.2282,0.2353,0,0,0,0,0,0,0.2205,0.2203,0.2207,0.2206,0.2207,0.2221,0.2211,0.2213,0.2233,0.2234,0.2237,0.2235,0.2223,0.2229,0.2229,0.2273,0.2219,0.2275,0.2278,0.2281,0.2349,0.2358,0.2366,0,0,0,0,0,0.2206,0.221,0.2206,0.2206,0.2208,0.2221,0.2225,0.2233,0.2234,0.225,0.2246,0.2236,0.225,0.223,0.223,0.2274,0.2274,0.2278,0.2281,0.2345,0.2356,0.2366,0,0,0,0,0,0,0.2222,0.2212,0.2207,0.2208,0.2218,0.2223,0.2244,0.2244,0.2255,0.226,0.2244,0.2242,0.227,0.2259,0.2238,0.2303,0.2266,0.227,0.2315,0.2325,0.2334,0.236,0.2219,0,0,0,0,0,0.2225,0.2225,0.2222,0.2226,0.2237,0.2244,0.2255,0.2257,0.2261,0.2268,0.2266,0.2272,0.2285,0.2292,0.2296,0.2324,0.2347,0.2357,0.2366,0.2373,0.2396,0.2479,0.2498,0.2296,0.2295,0.2295,0,0,0.2236,0.2227,0.223,0.223,0.2244,0.2262,0.2251,0.2274,0.2295,0.2264,0.2298,0.2297,0.2297,0.2331,0.2344,0.2327,0.2439,0.2378,0.2384,0.2403,0.2485,0.2505,0.2523,0.2298,0.2298,0.2297,0,0,0.2255,0.225,0.2263,0.2271,0.2286,0.2289,0.2298,0.2311,0.2331,0.234,0.2344,0.2374,0.2366,0.2403,0.2412,0.2472,0.2478,0.2471,0.254,0.2621,0.2639,0.2655,0.2693,0.2712,0.2479,0.2479,0.2479,0,0.227,0.2268,0.2273,0.2287,0.2295,0.2304,0.2323,0.2349,0.2361,0.2386,0.2354,0.2402,0.2408,0.2481,0.251,0.2495,0.2524,0.2498,0.2634,0.265,0.2666,0.2701,0.2721,0.2483,0.2483,0.2482,0.2482,0,0.2293,0.2298,0.2312,0.2325,0.2344,0.2359,0.2385,0.2419,0.2423,0.2439,0.2495,0.2502,0.2537,0.2551,0.2546,0.2669,0.2647,0.2632,0.261,0.2691,0.2722,0.2742,0.2489,0.2487,0.2486,0.2485,0,0,0.2302,0.2321,0.2329,0.2335,0.2358,0.2373,0.243,0.2477,0.2521,0.2539,0.2601,0.2643,0.2659,0.2675,0.2691,0.2767,0.2898,0.2756,0.2758,0.2797,0.3058,0.29,0.2906,0.291,0.2914,0.2918,0.303,0,0.2316,0.2335,0.2348,0.2379,0.2387,0.2421,0.2459,0.2512,0.2551,0.2619,0.2672,0.2731,0.2705,0.2741,0.2812,0.2876,0.2956,0.2868,0.2971,0.2974,0.2828,0.2926,0.2677,0.2744,0.3049,0.3052,0.3054,0,0.2326,0.2331,0.2358,0.238,0.2393,0.2423,0.2495,0.2539,0.2649,0.2683,0.2765,0.2807,0.2934,0.2898,0.3047,0.2991,0.3047,0.3084,0.3089,0.2936,0.2854,0.2717,0.2768,0.3087,0.3084,0.3082,0.308,0,0.2308,0.2338,0.2354,0.2362,0.2398,0.2438,0.2475,0.2563,0.262,0.2769,0.2832,0.2935,0.3019,0.31,0.3161,0.3134,0.3307,0.3271,0.3181,0.3169,0.2974,0.2937,0.3413,0.3413,0.3413,0.3413,0.3412,0,0.2286,0.2296,0.235,0.2361,0.2385,0.243,0.25,0.2558,0.2672,0.2755,0.2881,0.2959,0.3086,0.318,0.3215,0.3238,0.335,0.322,0.3205,0.2985,0.2949,0.3256,0.3236,0.3417,0.3416,0.3415,0.3414,0,0.223,0.2269,0.2295,0.2357,0.2377,0.2405,0.2505,0.2556,0.2681,0.281,0.2877,0.3029,0.3134,0.3215,0.335,0.33,0.3345,0.3335,0.3041,0.2987,0.314,0.3123,0.3252,0.3247,0.3244,0.3241,0.3238,0,0.22,0.2213,0.2289,0.2305,0.2332,0.2391,0.2426,0.2547,0.2613,0.2825,0.2875,0.3048,0.3104,0.3201,0.3169,0.3187,0.3295,0.2968,0.287,0.3161,0.3134,0.3122,0.311,0.2644,0.2637,0.2631,0.2627,0,0.215,0.2192,0.221,0.2245,0.2295,0.2343,0.2417,0.2454,0.2612,0.2708,0.2812,0.2886,0.2987,0.2863,0.2891,0.2867,0.2928,0.2844,0.3281,0.2696,0.259,0.2562,0.2571,0.2574,0.258,0.2584,0.2586,0.2588,0.2128,0.2114,0.2162,0.2173,0.2232,0.2266,0.2266,0.235,0.2417,0.2486,0.2615,0.2616,0.2653,0.2521,0.2458,0.2422,0.2624,0.252,0.2538,0.2563,0.2446,0.2336,0.225,0.2253,0.2256,0.2259,0.2261,0,0.2073,0.205,0.2075,0.2094,0.211,0.2189,0.2224,0.2183,0.2186,0.2254,0.2278,0.2077,0.2007,0.2072,0.1929,0.1921,0.1918,0.1852,0.1839,0.1892,0.1939,0.179,0.1421,0.1418,0.1416,0.1413,0,0,0.204,0.2023,0.2014,0.1983,0.1995,0.1981,0.1978,0.1919,0.1907,0.1803,0.1763,0.1853,0.1971,0.1642,0.1615,0.1498,0.1678,0.1435,0.2111,0.2146,0.219,0.2328,0.2158,0,0,0,0,0]},{"header":{"parameterUnit":"m.s-1","parameterCategory":2,"la1":30.2991,"la2":30.254,"lo1":-89.0895,"lo2":-89.0444,"dy":0.0017,"dx":0.0017,"nx":28,"ny":28,"refTime":"2025-09-05T03:00:00:Z","depth":"2","parameterNumber":3,"parameterNumberName":"V-component_of_CURRENTS"},"data":[0,0,0,0,0,0,0,0,0,0,0,0,0,0,0,0,0,0,0,0,0,0,0,0,0,0,0,0,0,0,0,0,0,0,0,0,0,0,0,0,0,0,0,0,0,0,0,0,0,0,0,0,0,0,0,0,0,0,0.0122,0.0122,0,0.0088,0.0087,0.0087,0.0066,0.0066,0.0066,0.0066,0.0016,0.0015,0.0014,0,0,0,0,0,0,0,0,0,0,0,0,0,0.0133,0.0133,0.0122,0.0122,0.0122,0.0088,0.0087,0.0086,0.0066,0.0066,0.0066,0.0066,0.0017,0.0015,0.0014,0,0,0,0,0,0,0,0,0,0,0,0,0,0.0115,0.0133,0.0122,0.0108,0.0106,0.0088,0.0087,0.0086,0.0066,0.0066,0.0066,0.0066,0.0017,0.0015,0.0013,0.0001,0,0,0.0007,0.0006,0,0,0,0,0,0,0,0,0.0116,0.0115,0.011,0.0109,0.0107,0.0082,0.0073,0.0057,0.0066,0.008,0.0066,0.0066,0.0037,0.0034,0.0026,-0.0001,-0.0003,0.0007,0.0006,0.0005,0.0004,0,0,0,0,0,0,0,0.0117,0.0116,0.0107,0.011,0.0108,0.009,0.0088,0.0069,0.0058,0.0079,0.0077,0.0075,0.0036,0.0028,0.0025,-0.0004,0.0007,0.0005,0.0004,0.0003,-0.0038,-0.0038,0,0,0,0,0,0,0.0126,0.0117,0.0109,0.0107,0.0113,0.009,0.0088,0.0089,0.0059,0.0054,0.0075,0.0074,0.0031,0.0027,0.0023,0.0021,0.0005,0.0003,0.0002,-0.0038,-0.0038,-0.0038,0,0,0,0,0,0,0.0126,0.0126,0.011,0.0112,0.0109,0.0091,0.0092,0.0088,0.0081,0.0056,0.0052,0.0072,0.0031,0.0026,0.001,0.0019,0.0002,0.0,-0.0038,-0.0038,-0.0038,0.0008,0,0,0,0,0,0,0.0127,0.0126,0.0129,0.0112,0.0109,0.0104,0.0092,0.0088,0.0081,0.0079,0.0052,0.0047,0.0031,0.0013,0.0008,0.0016,-0.0001,-0.0038,-0.0038,-0.0038,0.0007,0.001,0.0013,0,0,0,0,0,0.0127,0.0133,0.0129,0.0128,0.0113,0.0105,0.0101,0.0087,0.0081,0.008,0.0061,0.0048,0.001,0.0011,0.0005,0.0013,-0.0038,-0.0038,-0.0038,0.0005,0.0009,0.0013,0,0,0,0,0,0,0.0136,0.0131,0.0126,0.013,0.012,0.0102,0.0099,0.0089,0.0074,0.0072,0.0047,0.0042,0.0031,0.0013,0.0015,0.0,-0.0016,-0.0017,0.0019,0.0023,0.0026,0.0043,-0.0003,0,0,0,0,0,0.014,0.0146,0.0134,0.0136,0.0134,0.0117,0.0111,0.0102,0.0087,0.008,0.0062,0.0042,0.0026,0.0018,-0.0,-0.0009,-0.0015,-0.0008,-0.0005,-0.0002,0.0007,0.0008,0.0012,-0.0037,-0.0037,-0.0037,0,0,0.0143,0.0142,0.0143,0.0139,0.013,0.0133,0.0113,0.0108,0.011,0.0077,0.0073,0.005,0.0025,0.0017,0.0011,0.0005,0.0008,-0.0002,0.0001,0.0008,0.0009,0.0014,0.0018,-0.0037,-0.0037,-0.0037,0,0,0.0157,0.0152,0.0163,0.0159,0.0152,0.0143,0.0144,0.0128,0.0122,0.0112,0.0091,0.0077,0.0049,0.0039,0.0029,0.0037,0.0023,0.0028,0.0059,0.006,0.0065,0.0069,0.0068,0.0072,0.0031,0.0031,0.0032,0,0.0162,0.0176,0.0163,0.0173,0.0177,0.0152,0.0166,0.0153,0.0134,0.0135,0.0116,0.0085,0.0062,0.0061,0.0063,0.0046,0.0043,0.0049,0.0066,0.007,0.0073,0.0071,0.0075,0.0034,0.0033,0.0033,0.0033,0,0.0187,0.0197,0.0202,0.0211,0.0211,0.0217,0.0204,0.02,0.0186,0.0176,0.0166,0.0131,0.0117,0.0105,0.0085,0.0097,0.0086,0.007,0.0061,0.0081,0.0078,0.008,0.0037,0.0036,0.0035,0.0035,0,0,0.0209,0.022,0.0223,0.0239,0.0235,0.0241,0.0244,0.0248,0.0263,0.0228,0.0244,0.0205,0.0185,0.0172,0.0144,0.0141,0.0156,0.0119,0.0118,0.0127,0.0161,0.0123,0.0122,0.0146,0.0146,0.0147,0.015,0,0.0236,0.027,0.0266,0.0298,0.0315,0.03,0.0312,0.0309,0.0299,0.0306,0.0266,0.0265,0.0211,0.021,0.0195,0.0172,0.0165,0.0157,0.0133,0.0132,0.0103,0.0124,0.0135,0.0136,0.0152,0.0153,0.0153,0,0.027,0.0289,0.0325,0.0356,0.0364,0.0375,0.0401,0.0411,0.0405,0.0399,0.038,0.0347,0.0331,0.0284,0.0246,0.0245,0.0207,0.0181,0.0181,0.0133,0.0099,0.0117,0.014,0.0157,0.0157,0.0156,0.0156,0,0.0305,0.0337,0.0371,0.0378,0.0401,0.0417,0.0433,0.0439,0.0471,0.0464,0.0491,0.0436,0.0438,0.0375,0.0301,0.0282,0.0265,0.0232,0.016,0.0157,0.0155,0.015,0.0209,0.0209,0.0209,0.0209,0.0209,0,0.0342,0.0371,0.039,0.0408,0.0462,0.0462,0.0519,0.0524,0.0554,0.0623,0.0549,0.0593,0.0464,0.0429,0.0341,0.0262,0.0293,0.0174,0.0158,0.0169,0.0166,0.0172,0.0168,0.021,0.021,0.0209,0.0209,0,0.0375,0.0384,0.0428,0.046,0.0479,0.0518,0.0586,0.0632,0.0654,0.0744,0.0753,0.0721,0.0675,0.0539,0.0446,0.0333,0.0248,0.021,0.0225,0.021,0.0129,0.0126,0.0133,0.0132,0.0131,0.013,0.0129,0,0.0394,0.042,0.0472,0.051,0.0527,0.0588,0.064,0.0675,0.0746,0.0846,0.0908,0.0874,0.0869,0.0687,0.0476,0.0296,0.027,0.0176,0.013,0.0138,0.0122,0.0122,0.0121,0.015,0.015,0.0149,0.0149,0,0.0438,0.0452,0.0491,0.0569,0.0626,0.0705,0.0792,0.0869,0.0951,0.1029,0.1142,0.1142,0.0961,0.0763,0.0477,0.0351,0.0194,0.016,0.019,0.0156,0.0151,0.0136,0.0136,0.0145,0.0145,0.0146,0.0146,0.0146,0.0473,0.051,0.0563,0.0645,0.0717,0.0835,0.0917,0.1023,0.1154,0.1272,0.1286,0.1266,0.104,0.0653,0.0443,0.0189,0.0194,0.0091,0.0094,0.0097,0.0087,0.0079,0.0058,0.0058,0.0058,0.0058,0.0058,0,0.052,0.057,0.0644,0.0745,0.0837,0.0865,0.1029,0.111,0.1275,0.133,0.1382,0.1163,0.095,0.0693,0.0324,0.011,0.0095,0.0034,0.007,0.0075,0.0079,0.0069,0.0035,0.0035,0.0034,0.0034,0,0,0.0546,0.0624,0.0667,0.0833,0.0909,0.1035,0.1132,0.125,0.1315,0.1354,0.1313,0.1247,0.0982,0.0708,0.0435,0.0238,0.0197,0.0187,0.0224,0.0304,0.0311,0.0128,0.0119,0,0,0,0,0]}],[{"header":{"parameterUnit":"m.s-1","parameterCategory":2,"la1":30.2991,"la2":30.254,"lo1":-89.0895,"lo2":-89.0444,"dy":0.0017,"dx":0.0017,"nx":28,"ny":28,"refTime":"2025-09-05T03:00:00:Z","depth":"4","parameterNumber":2,"parameterNumberName":"U-component_of_CURRENTS"},"data":[0,0,0,0,0,0,0,0,0,0,0,0,0,0,0,0,0,0,0,0,0,0,0,0,0,0,0,0,0,0,0,0,0,0,0,0,0,0,0,0,0,0,0,0,0,0,0,0,0,0,0,0,0,0,0,0,0,0,0.1252,0.1253,0,0.1266,0.1266,0.1266,0.129,0.129,0.1291,0.1292,0.1326,0.1326,0.1326,0,0,0,0,0,0,0,0,0,0,0,0,0,0.1209,0.121,0.1252,0.1253,0.1253,0.1266,0.1266,0.1266,0.1289,0.129,0.1291,0.1292,0.1326,0.1326,0.1326,0,0,0,0,0,0,0,0,0,0,0,0,0,0.1222,0.121,0.1252,0.127,0.1272,0.1266,0.1266,0.1266,0.1289,0.129,0.1292,0.1293,0.1326,0.1326,0.1326,0.1302,0,0,0.1327,0.1327,0,0,0,0,0,0,0,0,0.1221,0.1223,0.1267,0.1269,0.1271,0.1281,0.1263,0.128,0.1289,0.1278,0.1292,0.1293,0.1315,0.1316,0.1309,0.1304,0.1305,0.1327,0.1327,0.1327,0.1327,0,0,0,0,0,0,0,0.122,0.1222,0.1253,0.1267,0.127,0.1265,0.1268,0.1266,0.1286,0.1279,0.1282,0.129,0.1316,0.1309,0.131,0.1306,0.1327,0.1327,0.1327,0.1327,0.1369,0.137,0,0,0,0,0,0,0.1228,0.1222,0.1253,0.1254,0.1254,0.1265,0.1268,0.1273,0.1286,0.129,0.1289,0.1291,0.1308,0.131,0.1312,0.1362,0.1327,0.1327,0.1327,0.1368,0.137,0.1371,0,0,0,0,0,0,0.1227,0.123,0.1253,0.1242,0.1245,0.1265,0.127,0.1273,0.1296,0.1294,0.1298,0.1313,0.1309,0.1312,0.1338,0.1361,0.1327,0.1327,0.1367,0.1369,0.137,0.1413,0,0,0,0,0,0,0.1225,0.123,0.1243,0.1242,0.1246,0.1268,0.1269,0.1272,0.1299,0.1302,0.1315,0.1318,0.131,0.1337,0.1338,0.1361,0.1328,0.1366,0.1368,0.137,0.141,0.1416,0.142,0,0,0,0,0,0.1223,0.123,0.1243,0.1248,0.1261,0.1269,0.1271,0.1286,0.1299,0.131,0.1324,0.1319,0.135,0.1338,0.1338,0.1362,0.1365,0.1367,0.137,0.1408,0.1415,0.142,0,0,0,0,0,0,0.1214,0.1234,0.1248,0.126,0.1277,0.1276,0.1287,0.13,0.1317,0.133,0.1328,0.1331,0.1365,0.1356,0.1343,0.138,0.1358,0.136,0.1387,0.1393,0.1398,0.1422,0.1328,0,0,0,0,0,0.122,0.1237,0.1251,0.1266,0.1273,0.1286,0.1296,0.1311,0.1323,0.1332,0.1345,0.1358,0.1367,0.1377,0.1383,0.1398,0.1412,0.1415,0.142,0.1425,0.1445,0.1473,0.1482,0.1378,0.1378,0.1378,0,0,0.1223,0.1236,0.1247,0.1267,0.1277,0.1289,0.1295,0.1318,0.134,0.1333,0.1371,0.1379,0.1377,0.1399,0.1413,0.1399,0.1464,0.1428,0.1431,0.145,0.1476,0.1486,0.1495,0.138,0.1379,0.1379,0,0,0.1228,0.1247,0.1261,0.1274,0.1302,0.1308,0.1323,0.1344,0.1367,0.1393,0.1403,0.1432,0.1436,0.145,0.1451,0.1488,0.1492,0.149,0.1532,0.1558,0.1567,0.1575,0.1615,0.1626,0.1489,0.1489,0.1489,0,0.1237,0.1249,0.1267,0.128,0.1293,0.1321,0.1335,0.1358,0.1391,0.1411,0.1414,0.1455,0.1459,0.1493,0.1513,0.1501,0.1522,0.1506,0.1566,0.1574,0.1581,0.162,0.1632,0.1491,0.1491,0.1491,0.1491,0,0.1239,0.1262,0.1269,0.1296,0.1313,0.1331,0.1362,0.1399,0.1426,0.1443,0.1496,0.151,0.1537,0.1542,0.154,0.16,0.1601,0.1571,0.1551,0.1595,0.1632,0.1644,0.1495,0.1494,0.1493,0.1493,0,0,0.123,0.1265,0.1273,0.1286,0.1324,0.1333,0.1383,0.142,0.145,0.1497,0.1535,0.1576,0.1602,0.1609,0.1622,0.1653,0.1727,0.1645,0.1645,0.1687,0.1806,0.166,0.1659,0.1708,0.171,0.1712,0.1815,0,0.1231,0.1251,0.1275,0.1302,0.131,0.1355,0.1384,0.1428,0.147,0.1514,0.1562,0.16,0.1621,0.1646,0.1686,0.1711,0.1759,0.1704,0.1757,0.1759,0.1624,0.1667,0.1718,0.1823,0.1826,0.1828,0.1829,0,0.1223,0.1237,0.126,0.1294,0.1302,0.133,0.1384,0.1418,0.1489,0.1524,0.1594,0.1629,0.1714,0.1707,0.1811,0.1777,0.1815,0.1832,0.1835,0.1693,0.1633,0.1768,0.185,0.1848,0.1847,0.1846,0.1844,0,0.1182,0.1227,0.1244,0.1256,0.1297,0.1332,0.1363,0.1425,0.1461,0.1553,0.1584,0.1677,0.1732,0.1796,0.186,0.1846,0.195,0.192,0.1835,0.1826,0.1909,0.1899,0.2004,0.2004,0.2004,0.2003,0.2003,0,0.1149,0.1169,0.1234,0.1235,0.1258,0.1306,0.1344,0.1393,0.1469,0.1502,0.1599,0.1643,0.1759,0.1828,0.1878,0.189,0.1972,0.1861,0.184,0.1925,0.1916,0.1918,0.1907,0.2007,0.2006,0.2006,0.2005,0,0.109,0.1135,0.1156,0.1214,0.1237,0.1255,0.1329,0.135,0.1439,0.1495,0.1534,0.1648,0.1733,0.1829,0.1927,0.1893,0.1924,0.1913,0.2023,0.2004,0.1787,0.1777,0.1827,0.1823,0.1819,0.1816,0.1813,0,0.1056,0.1064,0.1129,0.1137,0.117,0.1213,0.1232,0.1327,0.1355,0.148,0.149,0.1616,0.1684,0.1722,0.1815,0.1893,0.188,0.1882,0.1823,0.1793,0.1769,0.1765,0.176,0.1808,0.1807,0.1806,0.1805,0,0.0989,0.1029,0.1038,0.1054,0.1086,0.1102,0.115,0.117,0.1274,0.1379,0.1432,0.1491,0.1572,0.1649,0.1718,0.1767,0.1861,0.1844,0.1851,0.1795,0.177,0.1749,0.1748,0.1792,0.1794,0.1795,0.1796,0,0.0946,0.0929,0.0949,0.0952,0.0983,0.0975,0.1017,0.106,0.1112,0.1273,0.129,0.1427,0.1553,0.1584,0.1642,0.1676,0.166,0.1607,0.1627,0.1642,0.1529,0.1466,0.139,0,0,0,0,0,0.0896,0.0854,0.0841,0.0835,0.0863,0.0887,0.0943,0.0995,0.1124,0.1132,0.1215,0.1294,0.1379,0.1443,0.1447,0.155,0.1654,0.1542,0.1599,0.1721,0.1736,0.1617,0,0,0,0,0,0,0.0851,0.0836,0.0803,0.0743,0.0731,0.0748,0.0788,0.0873,0.0886,0.1035,0.1097,0.1212,0.1321,0.1386,0.1428,0.1449,0.1454,0.1639,0.1635,0.1712,0.1726,0.1738,0.1621,0,0,0,0,0]},{"header":{"parameterUnit":"m.s-1","parameterCategory":2,"la1":30.2991,"la2":30.254,"lo1":-89.0895,"lo2":-89.0444,"dy":0.0017,"dx":0.0017,"nx":28,"ny":28,"refTime":"2025-09-05T03:00:00:Z","depth":"4","parameterNumber":3,"parameterNumberName":"V-component_of_CURRENTS"},"data":[0,0,0,0,0,0,0,0,0,0,0,0,0,0,0,0,0,0,0,0,0,0,0,0,0,0,0,0,0,0,0,0,0,0,0,0,0,0,0,0,0,0,0,0,0,0,0,0,0,0,0,0,0,0,0,0,0,0,0.0143,0.0143,0,0.0135,0.0135,0.0135,0.0135,0.0136,0.0136,0.0136,0.0126,0.0125,0.0125,0,0,0,0,0,0,0,0,0,0,0,0,0,0.0141,0.0141,0.0143,0.0143,0.0143,0.0135,0.0135,0.0135,0.0135,0.0136,0.0136,0.0136,0.0126,0.0125,0.0125,0,0,0,0,0,0,0,0,0,0,0,0,0,0.0139,0.0141,0.0143,0.0142,0.0142,0.0135,0.0135,0.0135,0.0135,0.0136,0.0136,0.0136,0.0126,0.0125,0.0125,0.0119,0,0,0.0123,0.0123,0,0,0,0,0,0,0,0,0.0139,0.0139,0.0142,0.0142,0.0142,0.0136,0.013,0.0129,0.0135,0.0138,0.0136,0.0136,0.0129,0.0128,0.0126,0.0118,0.0118,0.0123,0.0123,0.0123,0.0122,0,0,0,0,0,0,0,0.0139,0.0139,0.014,0.0142,0.0142,0.0136,0.0136,0.013,0.0133,0.0138,0.0138,0.0136,0.0129,0.0127,0.0126,0.0118,0.0123,0.0123,0.0122,0.0122,0.0118,0.0118,0,0,0,0,0,0,0.014,0.0139,0.014,0.014,0.014,0.0136,0.0136,0.0138,0.0133,0.0132,0.0136,0.0136,0.0128,0.0127,0.0126,0.0131,0.0123,0.0122,0.0122,0.0118,0.0118,0.0118,0,0,0,0,0,0,0.014,0.0141,0.0141,0.0139,0.0138,0.0136,0.0138,0.0138,0.014,0.0132,0.0131,0.0139,0.0128,0.0127,0.0126,0.013,0.0122,0.0121,0.0117,0.0118,0.0118,0.0133,0,0,0,0,0,0,0.014,0.0141,0.0144,0.0139,0.0139,0.014,0.0138,0.0137,0.0138,0.0139,0.0134,0.0133,0.0128,0.0126,0.0125,0.0129,0.0121,0.0117,0.0117,0.0118,0.0133,0.0134,0.0135,0,0,0,0,0,0.014,0.0145,0.0145,0.0145,0.0143,0.014,0.0139,0.0137,0.0138,0.014,0.0138,0.0133,0.0128,0.0126,0.0124,0.0129,0.0117,0.0117,0.0118,0.0132,0.0134,0.0135,0,0,0,0,0,0,0.0144,0.0145,0.0145,0.0149,0.0146,0.014,0.0142,0.014,0.0139,0.014,0.0134,0.0133,0.0134,0.0129,0.0127,0.0129,0.0122,0.0122,0.0133,0.0135,0.0137,0.0136,0.012,0,0,0,0,0,0.0147,0.0152,0.0148,0.0151,0.0152,0.0147,0.0146,0.0144,0.0142,0.0142,0.0138,0.0135,0.0133,0.0133,0.0129,0.0129,0.0113,0.0131,0.0133,0.0134,0.0132,0.011,0.0109,0.012,0.012,0.012,0,0,0.0148,0.0149,0.0152,0.0153,0.0151,0.0156,0.0148,0.0147,0.0151,0.014,0.0146,0.0139,0.0134,0.0135,0.0135,0.0133,0.0123,0.0135,0.0136,0.0133,0.011,0.0109,0.0108,0.012,0.012,0.012,0,0,0.0155,0.0156,0.0164,0.0164,0.0164,0.0162,0.0163,0.0159,0.0158,0.0159,0.0154,0.0148,0.0147,0.0142,0.0141,0.0147,0.013,0.0149,0.0157,0.0135,0.0134,0.0133,0.0112,0.0109,0.0151,0.0151,0.0151,0,0.0158,0.017,0.0165,0.0173,0.018,0.0167,0.018,0.0173,0.0168,0.0172,0.0163,0.0157,0.0149,0.0152,0.0153,0.015,0.0135,0.0151,0.0137,0.0135,0.0133,0.0112,0.0108,0.0152,0.0152,0.0152,0.0152,0,0.0172,0.0183,0.0188,0.0198,0.0202,0.0209,0.0203,0.0203,0.02,0.0196,0.0193,0.0174,0.0174,0.0168,0.0161,0.0151,0.0144,0.0139,0.0131,0.0133,0.0111,0.0107,0.0153,0.0153,0.0153,0.0153,0,0,0.0184,0.0197,0.0201,0.0219,0.022,0.023,0.0231,0.0238,0.0253,0.0227,0.0238,0.0215,0.0203,0.02,0.0186,0.016,0.0132,0.0146,0.0144,0.0123,0.0083,0.0076,0.007,0.0125,0.0124,0.0123,0.0073,0,0.0203,0.0229,0.0231,0.0262,0.0279,0.0274,0.0284,0.0285,0.0282,0.0285,0.0249,0.0255,0.0217,0.0222,0.0186,0.0151,0.0122,0.0146,0.0086,0.0084,0.0075,0.0065,0.0121,0.0069,0.0068,0.0068,0.0067,0,0.0223,0.0241,0.0273,0.031,0.0319,0.0335,0.0364,0.0371,0.0361,0.0361,0.034,0.0314,0.0274,0.0244,0.0162,0.018,0.0132,0.0093,0.0091,0.0074,0.0068,0.0067,0.0059,0.006,0.006,0.0061,0.0061,0,0.0245,0.0278,0.031,0.032,0.0348,0.0369,0.0389,0.0396,0.0423,0.0411,0.0424,0.0364,0.0347,0.0266,0.0174,0.0173,0.0078,0.0071,0.0015,0.0014,0.003,0.0032,0.0011,0.0011,0.0011,0.0011,0.0011,0,0.0268,0.0298,0.0327,0.0345,0.0399,0.0407,0.0465,0.0471,0.0493,0.0525,0.0469,0.0466,0.0351,0.028,0.0188,0.0085,0.0089,0.0011,-0.0002,0.0038,0.0042,0.0027,0.0029,0.0009,0.0009,0.001,0.001,0,0.0285,0.0299,0.0344,0.0388,0.041,0.0449,0.0525,0.0567,0.0576,0.0611,0.061,0.0547,0.045,0.0329,0.02,0.0118,0.0015,-0.002,0.003,0.0023,-0.0038,-0.0034,-0.0086,-0.0087,-0.0088,-0.0088,-0.0089,0,0.0293,0.0314,0.0379,0.0415,0.0441,0.0507,0.0559,0.0605,0.0646,0.0655,0.0665,0.059,0.0527,0.0336,0.0204,0.003,0.0004,-0.005,-0.0053,-0.0042,-0.0049,-0.0044,-0.0039,-0.009,-0.009,-0.009,-0.009,0,0.0313,0.0334,0.0373,0.0446,0.051,0.0589,0.0659,0.0697,0.0736,0.0749,0.0712,0.061,0.0499,0.0337,0.0203,0.0076,-0.0018,-0.0057,-0.0057,-0.006,-0.0047,-0.0052,-0.0047,-0.0092,-0.0092,-0.0092,-0.0092,0,0.0329,0.0359,0.0409,0.0479,0.0558,0.0635,0.068,0.0723,0.0765,0.0765,0.0746,0.0625,0.0554,0.0361,0.0234,0.0109,0.0076,0.0031,0.0026,0.0027,0.0069,0.0103,0.0089,0,0,0,0,0,0.0341,0.0378,0.0441,0.0515,0.0595,0.0643,0.0728,0.0764,0.0797,0.0779,0.0766,0.0659,0.0469,0.0383,0.0257,0.0217,0.0052,0.0065,-0.0003,-0.0105,-0.0102,-0.0074,0,0,0,0,0,0,0.0349,0.0403,0.0437,0.0533,0.0587,0.0682,0.0738,0.0766,0.0752,0.0755,0.0655,0.0616,0.043,0.0536,0.0248,0.0211,0.0148,-0.002,-0.0023,-0.0106,-0.0104,-0.0102,-0.0072,0,0,0,0,0]}]]